| time (UTC) | temp F | wind direction | speed MPH | gust MPH | rain 1hr in | rain 24hr in | rain mn in | humidity % | barometer mb |
| 20260504150838 | 69 | 246 | 4.0 | 9.0 | 0.00 | 0.00 | 0.00 | 36 | 1010.5 |
| 20260504150332 | 68 | 304 | 4.0 | 9.0 | 0.00 | 0.00 | 0.00 | 38 | 1010.5 |
| 20260504140756 | 65 | 247 | 3.0 | 8.0 | 0.00 | 0.00 | 0.00 | 41 | 1011.2 |
| 20260504140531 | 65 | 257 | 3.0 | 8.0 | 0.00 | 0.00 | 0.00 | 41 | 1011.4 |
| 20260504130709 | 61 | 285 | 5.0 | 10.0 | 0.00 | 0.00 | 0.00 | 43 | 1011.6 |
| 20260504130159 | 61 | 257 | 4.0 | 10.0 | 0.00 | 0.00 | 0.00 | 44 | 1011.6 |
| 20260504120117 | 55 | 274 | 4.0 | 10.0 | 0.00 | 0.00 | 0.00 | 51 | 1011.8 |
| 20260504110504 | 48 | 238 | 3.0 | 6.0 | 0.00 | 0.00 | 0.00 | 60 | 1012.1 |
| 20260504100409 | 47 | 274 | 2.0 | 4.0 | 0.00 | 0.00 | 0.00 | 60 | 1012.0 |
| 20260504081741 | 46 | 300 | 2.0 | 4.0 | 0.00 | 0.00 | 0.00 | 62 | 1011.7 |
| 20260504081238 | 46 | 301 | 2.0 | 3.0 | 0.00 | 0.00 | 0.00 | 62 | 1011.7 |
| 20260504080731 | 46 | 301 | 2.0 | 3.0 | 0.00 | 0.00 | 0.00 | 62 | 1011.5 |
| 20260504080225 | 46 | 301 | 2.0 | 3.0 | 0.00 | 0.00 | 0.00 | 61 | 1011.6 |
| 20260504070120 | 44 | 298 | 2.0 | 3.0 | 0.00 | 0.00 | 0.00 | 63 | 1011.7 |
| 20260504050434 | 38 | 302 | 1.0 | 2.0 | 0.00 | 0.00 | 0.00 | 71 | 1011.7 |
| 20260504045926 | 38 | 302 | 1.0 | 4.0 | 0.00 | 0.00 | 0.00 | 71 | 1011.7 |
| 20260504045413 | 38 | 302 | 2.0 | 4.0 | 0.00 | 0.00 | 0.00 | 70 | 1011.6 |
| 20260504044915 | 38 | 302 | 1.0 | 2.0 | 0.00 | 0.00 | 0.00 | 70 | 1011.5 |
| 20260504044409 | 39 | 302 | 0.0 | 2.0 | 0.00 | 0.00 | 0.00 | 70 | 1011.5 |
| 20260504044135 | 39 | 302 | 0.0 | 3.0 | 0.00 | 0.00 | 0.00 | 70 | 1011.6 |
| 20260504043358 | 39 | 302 | 0.0 | 3.0 | 0.00 | 0.00 | 0.00 | 70 | 1011.7 |
| 20260504042858 | 39 | 302 | 0.0 | 1.0 | 0.00 | 0.00 | 0.00 | 69 | 1011.6 |
| 20260504042854 | 39 | 302 | 2.0 | 3.0 | 0.00 | 0.00 | 0.00 | 70 | 1011.6 |
| 20260504041848 | 40 | 302 | 0.0 | 2.0 | 0.00 | 0.00 | 0.00 | 69 | 1011.6 |
| 20260504041334 | 40 | 302 | 0.0 | 2.0 | 0.00 | 0.00 | 0.00 | 69 | 1011.6 |
| 20260504040830 | 40 | 302 | 1.0 | 2.0 | 0.00 | 0.00 | 0.00 | 70 | 1011.6 |
| 20260504040330 | 40 | 302 | 1.0 | 2.0 | 0.00 | 0.00 | 0.00 | 70 | 1011.6 |
| 20260504035827 | 40 | 302 | 1.0 | 2.0 | 0.00 | 0.00 | 0.00 | 69 | 1011.5 |
| 20260504035325 | 40 | 302 | 2.0 | 2.0 | 0.00 | 0.00 | 0.00 | 69 | 1011.5 |
| 20260504035051 | 40 | 302 | 1.0 | 2.0 | 0.00 | 0.00 | 0.00 | 69 | 1011.5 |
| 20260504034314 | 40 | 302 | 1.0 | 2.0 | 0.00 | 0.00 | 0.00 | 69 | 1011.4 |
| 20260504034041 | 40 | 302 | 1.0 | 2.0 | 0.00 | 0.00 | 0.00 | 70 | 1011.5 |
| 20260504033302 | 39 | 302 | 1.0 | 2.0 | 0.00 | 0.00 | 0.00 | 70 | 1011.4 |
| 20260504032756 | 39 | 302 | 1.0 | 3.0 | 0.00 | 0.00 | 0.00 | 70 | 1011.3 |
| 20260504032250 | 39 | 302 | 1.0 | 3.0 | 0.00 | 0.00 | 0.00 | 71 | 1011.4 |
| 20260504031743 | 39 | 302 | 1.0 | 2.0 | 0.00 | 0.00 | 0.00 | 71 | 1011.4 |
| 20260504031238 | 39 | 302 | 1.0 | 2.0 | 0.00 | 0.00 | 0.00 | 70 | 1011.4 |
| 20260504030726 | 39 | 302 | 1.0 | 3.0 | 0.00 | 0.00 | 0.00 | 71 | 1011.3 |
| 20260504030226 | 39 | 302 | 1.0 | 3.0 | 0.00 | 0.00 | 0.00 | 71 | 1011.4 |
| 20260504025722 | 39 | 302 | 1.0 | 2.0 | 0.00 | 0.00 | 0.00 | 70 | 1011.3 |
| 20260504025216 | 39 | 302 | 1.0 | 2.0 | 0.00 | 0.00 | 0.00 | 69 | 1011.3 |
| 20260504024710 | 39 | 302 | 1.0 | 2.0 | 0.00 | 0.00 | 0.00 | 68 | 1011.1 |
| 20260504024204 | 39 | 302 | 1.0 | 2.0 | 0.00 | 0.00 | 0.00 | 68 | 1011.2 |
| 20260504023931 | 40 | 302 | 1.0 | 2.0 | 0.00 | 0.00 | 0.00 | 67 | 1011.2 |
| 20260504023153 | 40 | 302 | 1.0 | 2.0 | 0.00 | 0.00 | 0.00 | 67 | 1011.1 |
| 20260504022653 | 40 | 302 | 1.0 | 2.0 | 0.00 | 0.00 | 0.00 | 66 | 1011.0 |
| 20260504022146 | 41 | 302 | 1.0 | 2.0 | 0.00 | 0.00 | 0.00 | 66 | 1011.0 |
| 20260504021924 | 41 | 302 | 0.0 | 1.0 | 0.00 | 0.00 | 0.00 | 65 | 1011.0 |
| 20260504021407 | 42 | 302 | 0.0 | 2.0 | 0.00 | 0.00 | 0.00 | 64 | 1010.9 |
| 20260504020625 | 42 | 302 | 1.0 | 2.0 | 0.00 | 0.00 | 0.00 | 63 | 1011.0 |
| 20260504020120 | 42 | 302 | 0.0 | 0.0 | 0.00 | 0.00 | 0.00 | 61 | 1010.9 |
| 20260504015613 | 42 | 302 | 0.0 | 0.0 | 0.00 | 0.00 | 0.00 | 62 | 1010.9 |
| 20260504015052 | 42 | 302 | 0.0 | 1.0 | 0.00 | 0.00 | 0.00 | 60 | 1010.9 |
| 20260504014547 | 43 | 302 | 0.0 | 1.0 | 0.00 | 0.00 | 0.00 | 58 | 1010.9 |
| 20260504014043 | 43 | 302 | 0.0 | 2.0 | 0.00 | 0.00 | 0.00 | 58 | 1010.8 |
| 20260504013812 | 43 | 302 | 1.0 | 2.0 | 0.00 | 0.00 | 0.00 | 58 | 1010.8 |
| 20260504013022 | 44 | 302 | 1.0 | 2.0 | 0.00 | 0.00 | 0.00 | 58 | 1010.8 |
| 20260504012519 | 44 | 302 | 1.0 | 2.0 | 0.00 | 0.00 | 0.00 | 57 | 1010.7 |
| 20260504012012 | 44 | 302 | 1.0 | 2.0 | 0.00 | 0.00 | 0.00 | 56 | 1010.7 |
| 20260504011514 | 45 | 302 | 1.0 | 2.0 | 0.00 | 0.00 | 0.00 | 55 | 1010.6 |
| 20260504011008 | 45 | 302 | 1.0 | 2.0 | 0.00 | 0.00 | 0.00 | 54 | 1010.6 |
| 20260504010456 | 46 | 302 | 1.0 | 2.0 | 0.00 | 0.00 | 0.00 | 52 | 1010.5 |
| 20260504005950 | 47 | 302 | 1.0 | 2.0 | 0.00 | 0.00 | 0.00 | 52 | 1010.5 |
| 20260504005451 | 47 | 302 | 1.0 | 2.0 | 0.00 | 0.00 | 0.00 | 51 | 1010.4 |
| 20260504004946 | 48 | 302 | 2.0 | 3.0 | 0.00 | 0.00 | 0.00 | 50 | 1010.3 |
| 20260504004438 | 49 | 302 | 1.0 | 3.0 | 0.00 | 0.00 | 0.00 | 49 | 1010.1 |
| 20260504003925 | 49 | 298 | 2.0 | 6.0 | 0.00 | 0.00 | 0.00 | 47 | 1010.0 |
| 20260504003420 | 49 | 300 | 2.0 | 6.0 | 0.00 | 0.00 | 0.00 | 46 | 1010.0 |
| 20260504002921 | 50 | 319 | 2.0 | 6.0 | 0.00 | 0.00 | 0.00 | 46 | 1010.0 |
| 20260504002415 | 50 | 314 | 2.0 | 7.0 | 0.00 | 0.00 | 0.00 | 46 | 1010.0 |
| 20260504001915 | 50 | 319 | 3.0 | 7.0 | 0.00 | 0.00 | 0.00 | 45 | 1009.9 |
| 20260504001647 | 50 | 329 | 2.0 | 5.0 | 0.00 | 0.00 | 0.00 | 45 | 1009.8 |
| 20260504000904 | 51 | 316 | 3.0 | 9.0 | 0.00 | 0.00 | 0.00 | 44 | 1009.7 |
| 20260504000401 | 51 | 300 | 5.0 | 10.0 | 0.00 | 0.00 | 0.00 | 44 | 1009.6 |
| 20260503235851 | 51 | 318 | 4.0 | 12.0 | 0.00 | 0.00 | 0.00 | 44 | 1009.5 |
| 20260503235346 | 51 | 37 | 4.0 | 12.0 | 0.00 | 0.00 | 0.00 | 43 | 1009.5 |
| 20260503234840 | 51 | 337 | 2.0 | 4.0 | 0.00 | 0.00 | 0.00 | 44 | 1009.4 |
| 20260503234337 | 51 | 337 | 2.0 | 6.0 | 0.00 | 0.00 | 0.00 | 44 | 1009.3 |
| 20260503233837 | 52 | 307 | 2.0 | 8.0 | 0.00 | 0.00 | 0.00 | 43 | 1009.3 |
| 20260503233331 | 52 | 319 | 4.0 | 9.0 | 0.00 | 0.00 | 0.00 | 43 | 1009.2 |
| 20260503232831 | 52 | 68 | 2.0 | 9.0 | 0.00 | 0.00 | 0.00 | 43 | 1009.1 |
| 20260503232326 | 52 | 21 | 4.0 | 10.0 | 0.00 | 0.00 | 0.00 | 43 | 1009.0 |
| 20260503231818 | 52 | 321 | 4.0 | 10.0 | 0.00 | 0.00 | 0.00 | 43 | 1008.9 |
| 20260503231316 | 53 | 359 | 4.0 | 13.0 | 0.00 | 0.00 | 0.00 | 42 | 1008.8 |
| 20260503230815 | 53 | 294 | 5.0 | 14.0 | 0.00 | 0.00 | 0.00 | 41 | 1008.8 |
| 20260503230310 | 53 | 313 | 5.0 | 14.0 | 0.00 | 0.00 | 0.00 | 42 | 1008.8 |
| 20260503225807 | 53 | 342 | 5.0 | 13.0 | 0.00 | 0.00 | 0.00 | 43 | 1008.7 |
| 20260503225548 | 53 | 345 | 5.0 | 12.0 | 0.00 | 0.00 | 0.00 | 43 | 1008.6 |
| 20260503224759 | 53 | 257 | 5.0 | 13.0 | 0.00 | 0.00 | 0.00 | 42 | 1008.5 |
| 20260503224300 | 53 | 319 | 6.0 | 13.0 | 0.00 | 0.00 | 0.00 | 42 | 1008.4 |
| 20260503223752 | 53 | 264 | 7.0 | 13.0 | 0.00 | 0.00 | 0.00 | 42 | 1008.4 |
| 20260503223247 | 53 | 302 | 5.0 | 15.0 | 0.00 | 0.00 | 0.00 | 43 | 1008.3 |
| 20260503222743 | 53 | 338 | 7.0 | 16.0 | 0.00 | 0.00 | 0.00 | 42 | 1008.2 |
| 20260503222236 | 53 | 0 | 5.0 | 16.0 | 0.00 | 0.00 | 0.00 | 43 | 1008.1 |
| 20260503221738 | 53 | 338 | 4.0 | 21.0 | 0.00 | 0.00 | 0.00 | 42 | 1008.0 |
| 20260503221234 | 53 | 344 | 6.0 | 21.0 | 0.00 | 0.00 | 0.00 | 42 | 1008.1 |
| 20260503220732 | 54 | 292 | 5.0 | 18.0 | 0.00 | 0.00 | 0.00 | 43 | 1007.8 |
| 20260503220508 | 54 | 348 | 6.0 | 18.0 | 0.00 | 0.00 | 0.00 | 42 | 1007.7 |
| 20260503215758 | 54 | 338 | 8.0 | 17.0 | 0.00 | 0.00 | 0.00 | 41 | 1007.5 |
| 20260503215747 | 54 | 351 | 6.0 | 17.0 | 0.00 | 0.00 | 0.00 | 44 | 1007.7 |
| 20260503214715 | 54 | 335 | 4.0 | 11.0 | 0.00 | 0.00 | 0.00 | 45 | 1007.5 |
| 20260503214216 | 54 | 359 | 5.0 | 15.0 | 0.00 | 0.00 | 0.00 | 43 | 1007.4 |
| 20260503213709 | 54 | 300 | 5.0 | 19.0 | 0.00 | 0.00 | 0.00 | 43 | 1007.2 |
| 20260503213210 | 54 | 340 | 4.0 | 19.0 | 0.00 | 0.00 | 0.00 | 44 | 1007.2 |
| 20260503212705 | 54 | 309 | 4.0 | 9.0 | 0.00 | 0.00 | 0.00 | 45 | 1007.2 |
| 20260503212207 | 54 | 6 | 4.0 | 12.0 | 0.00 | 0.00 | 0.00 | 44 | 1007.2 |
| 20260503211706 | 54 | 351 | 5.0 | 12.0 | 0.00 | 0.00 | 0.00 | 45 | 1007.0 |
| 20260503211434 | 54 | 347 | 3.0 | 14.0 | 0.00 | 0.00 | 0.00 | 45 | 1007.0 |
| 20260503210703 | 54 | 330 | 5.0 | 14.0 | 0.00 | 0.00 | 0.00 | 44 | 1006.9 |
| 20260503210154 | 54 | 0 | 5.0 | 14.0 | 0.00 | 0.00 | 0.00 | 45 | 1006.9 |
| 20260503205657 | 54 | 307 | 6.0 | 14.0 | 0.00 | 0.00 | 0.00 | 45 | 1006.8 |
| 20260503205150 | 54 | 1 | 5.0 | 11.0 | 0.00 | 0.00 | 0.00 | 48 | 1006.7 |
| 20260503204652 | 54 | 326 | 6.0 | 11.0 | 0.00 | 0.00 | 0.00 | 48 | 1006.6 |
| 20260503204145 | 54 | 336 | 5.0 | 17.0 | 0.00 | 0.00 | 0.00 | 48 | 1006.6 |
| 20260503203647 | 54 | 11 | 7.0 | 17.0 | 0.00 | 0.00 | 0.00 | 46 | 1006.6 |
| 20260503203145 | 55 | 310 | 4.0 | 15.0 | 0.00 | 0.00 | 0.00 | 49 | 1006.5 |
| 20260503202641 | 54 | 345 | 3.0 | 15.0 | 0.00 | 0.00 | 0.00 | 48 | 1006.5 |
| 20260503202133 | 55 | 308 | 7.0 | 18.0 | 0.00 | 0.00 | 0.00 | 48 | 1006.4 |
| 20260503201630 | 55 | 6 | 7.0 | 18.0 | 0.00 | 0.00 | 0.00 | 48 | 1006.5 |
| 20260503201123 | 55 | 1 | 5.0 | 13.0 | 0.00 | 0.00 | 0.00 | 49 | 1006.5 |
| 20260503200622 | 55 | 0 | 5.0 | 13.0 | 0.00 | 0.00 | 0.00 | 49 | 1006.4 |
| 20260503200354 | 55 | 349 | 6.0 | 14.0 | 0.00 | 0.00 | 0.00 | 51 | 1006.5 |
| 20260503195612 | 54 | 290 | 5.0 | 15.0 | 0.00 | 0.00 | 0.00 | 52 | 1006.5 |
| 20260503195359 | 54 | 313 | 5.0 | 15.0 | 0.00 | 0.00 | 0.00 | 50 | 1006.5 |
| 20260503194609 | 54 | 1 | 7.0 | 17.0 | 0.00 | 0.00 | 0.00 | 50 | 1006.5 |
| 20260503194108 | 54 | 359 | 6.0 | 17.0 | 0.00 | 0.00 | 0.00 | 52 | 1006.5 |
| 20260503193601 | 54 | 345 | 6.0 | 14.0 | 0.00 | 0.00 | 0.00 | 53 | 1006.6 |
| 20260503193102 | 54 | 340 | 6.0 | 14.0 | 0.00 | 0.00 | 0.00 | 53 | 1006.7 |
| 20260503192841 | 54 | 12 | 5.0 | 14.0 | 0.00 | 0.00 | 0.00 | 53 | 1006.6 |
| 20260503192057 | 54 | 314 | 6.0 | 14.0 | 0.00 | 0.00 | 0.00 | 53 | 1006.7 |
| 20260503191551 | 54 | 342 | 5.0 | 15.0 | 0.00 | 0.00 | 0.00 | 55 | 1006.7 |
| 20260503191044 | 53 | 17 | 5.0 | 15.0 | 0.00 | 0.00 | 0.00 | 54 | 1006.7 |
| 20260503190540 | 53 | 0 | 8.0 | 15.0 | 0.00 | 0.00 | 0.00 | 54 | 1006.9 |
| 20260503190033 | 53 | 344 | 3.0 | 13.0 | 0.00 | 0.00 | 0.00 | 57 | 1006.7 |
| 20260503185533 | 52 | 275 | 7.0 | 13.0 | 0.00 | 0.00 | 0.00 | 58 | 1006.8 |
| 20260503185029 | 52 | 0 | 6.0 | 11.0 | 0.00 | 0.00 | 0.00 | 62 | 1006.8 |
| 20260503184526 | 52 | 47 | 5.0 | 11.0 | 0.00 | 0.00 | 0.00 | 64 | 1006.9 |
| 20260503184024 | 52 | 19 | 5.0 | 12.0 | 0.00 | 0.00 | 0.00 | 64 | 1006.7 |
| 20260503183525 | 53 | 48 | 7.0 | 12.0 | 0.00 | 0.00 | 0.00 | 63 | 1006.9 |
| 20260503183020 | 53 | 34 | 7.0 | 12.0 | 0.00 | 0.00 | 0.00 | 59 | 1006.9 |
| 20260503182747 | 53 | 45 | 6.0 | 15.0 | 0.00 | 0.00 | 0.00 | 60 | 1006.7 |
| 20260503182007 | 52 | 23 | 6.0 | 15.0 | 0.00 | 0.00 | 0.00 | 59 | 1006.8 |
| 20260503181459 | 52 | 14 | 6.0 | 11.0 | 0.00 | 0.00 | 0.00 | 61 | 1006.9 |
| 20260503180955 | 51 | 1 | 5.0 | 14.0 | 0.00 | 0.00 | 0.00 | 64 | 1006.9 |
| 20260503180734 | 50 | 4 | 6.0 | 14.0 | 0.00 | 0.00 | 0.00 | 63 | 1007.0 |
| 20260503180223 | 50 | 359 | 5.0 | 14.0 | 0.00 | 0.00 | 0.00 | 64 | 1006.9 |
| 20260503175448 | 50 | 0 | 7.0 | 14.0 | 0.00 | 0.00 | 0.00 | 63 | 1007.1 |
| 20260503174949 | 50 | 1 | 3.0 | 10.0 | 0.00 | 0.00 | 0.00 | 65 | 1006.9 |
| 20260503174448 | 50 | 339 | 6.0 | 14.0 | 0.00 | 0.00 | 0.00 | 65 | 1006.9 |
| 20260503173945 | 50 | 13 | 5.0 | 16.0 | 0.00 | 0.00 | 0.00 | 64 | 1006.9 |
| 20260503173438 | 50 | 348 | 8.0 | 20.0 | 0.00 | 0.00 | 0.00 | 64 | 1006.8 |
| 20260503172937 | 51 | 23 | 9.0 | 20.0 | 0.00 | 0.00 | 0.00 | 63 | 1006.8 |
| 20260503172434 | 51 | 6 | 9.0 | 17.0 | 0.00 | 0.00 | 0.00 | 65 | 1006.9 |
| 20260503171929 | 51 | 348 | 8.0 | 17.0 | 0.00 | 0.00 | 0.00 | 67 | 1006.6 |
| 20260503171438 | 49 | 35 | 8.0 | 14.0 | 0.00 | 0.00 | 0.00 | 71 | 1006.8 |
| 20260503171433 | 51 | 327 | 6.0 | 14.0 | 0.00 | 0.00 | 0.00 | 69 | 1006.7 |
| 20260503170416 | 49 | 63 | 5.0 | 16.0 | 0.00 | 0.00 | 0.00 | 72 | 1006.8 |